SVA265 OEJN-OEMA

Flight info

Callsign SVA265
Flight time 0h 40m
Altitude 29000
Route DATAP A424 RULEB/N0424F280 A424 DEGVU
Aircraft A320/M-SDE3FGHIRWY/LB1

Departure

Time 2026-04-29 19:45
Airport King Abdulaziz International Airport (OEJN)

Arrival

Time 2026-04-29 20:26
Airport Prince Mohammad Bin Abdulaziz Airport (OEMA)
Time Latitude Longitude Altitude Speed Heading
2026-04-29 19:13 21.66726 39.17039 44 ft 0 kts 69°
2026-04-29 19:26 21.66717 39.17012 43 ft 0 kts 69°
2026-04-29 19:36 21.66715 39.17008 43 ft 2 kts 69°
2026-04-29 19:36 21.66708 39.16989 43 ft 3 kts 70°
2026-04-29 19:37 21.66702 39.16969 40 ft 3 kts 74°
2026-04-29 19:37 21.66698 39.16955 38 ft 3 kts 84°
2026-04-29 19:37 21.66701 39.16932 40 ft 2 kts 154°
2026-04-29 19:37 21.66708 39.16929 39 ft 1 kts 162°
2026-04-29 19:41 21.66688 39.16936 42 ft 11 kts 162°
2026-04-29 19:41 21.66612 39.16962 39 ft 11 kts 162°
2026-04-29 19:41 21.66544 39.16986 42 ft 10 kts 162°
2026-04-29 19:41 21.66485 39.17005 42 ft 8 kts 163°
2026-04-29 19:42 21.66415 39.17022 42 ft 10 kts 174°
2026-04-29 19:42 21.66368 39.17020 42 ft 10 kts 190°
2026-04-29 19:42 21.66303 39.16988 40 ft 4 kts 249°
2026-04-29 19:42 21.66285 39.16918 40 ft 15 kts 253°
2026-04-29 19:43 21.66248 39.16819 37 ft 10 kts 249°
2026-04-29 19:43 21.66231 39.16768 37 ft 8 kts 250°
2026-04-29 19:43 21.66192 39.16658 37 ft 11 kts 231°
2026-04-29 19:43 21.66173 39.16609 36 ft 8 kts 253°
2026-04-29 19:44 21.66149 39.16518 35 ft 12 kts 258°
2026-04-29 19:44 21.66188 39.16457 35 ft 7 kts 339°
2026-04-29 19:44 21.66189 39.16456 35 ft 0 kts 339°
2026-04-29 19:44 21.66213 39.16448 35 ft 18 kts 342°
2026-04-29 19:45 21.66580 39.16304 37 ft 90 kts 338°
2026-04-29 19:45 21.67356 39.16003 34 ft 145 kts 339°
2026-04-29 19:45 21.68369 39.15590 485 ft 149 kts 339°
2026-04-29 19:45 21.69312 39.15192 1237 ft 144 kts 341°
2026-04-29 19:46 21.70274 39.14794 1788 ft 152 kts 341°
2026-04-29 19:46 21.71295 39.14404 2308 ft 162 kts 341°
2026-04-29 19:46 21.72413 39.13978 2687 ft 178 kts 341°
2026-04-29 19:46 21.73590 39.13543 3278 ft 181 kts 339°
2026-04-29 19:47 21.74832 39.13077 3674 ft 198 kts 339°
2026-04-29 19:47 21.76193 39.12542 4040 ft 218 kts 338°
2026-04-29 19:47 21.77656 39.11948 4420 ft 239 kts 337°
2026-04-29 19:47 21.79246 39.11310 5140 ft 242 kts 338°
2026-04-29 19:48 21.80819 39.10675 5984 ft 243 kts 337°
2026-04-29 19:48 21.81887 39.10233 6499 ft 244 kts 336°
2026-04-29 19:48 21.84110 39.09323 7086 ft 270 kts 337°
2026-04-29 19:48 21.85920 39.08609 7649 ft 282 kts 338°
2026-04-29 19:49 21.87759 39.07898 8390 ft 286 kts 338°
2026-04-29 19:49 21.89649 39.07166 9171 ft 290 kts 337°
2026-04-29 19:49 21.91533 39.06359 9947 ft 293 kts 334°
2026-04-29 19:49 21.93415 39.05477 10655 ft 297 kts 333°
2026-04-29 19:50 21.95304 39.04559 11374 ft 300 kts 333°
2026-04-29 19:50 21.97213 39.03624 12105 ft 302 kts 333°
2026-04-29 19:50 21.99133 39.02687 12828 ft 305 kts 333°
2026-04-29 19:50 22.01092 39.01737 13549 ft 309 kts 333°
2026-04-29 19:51 22.03059 39.00791 14194 ft 311 kts 333°
2026-04-29 19:51 22.05051 38.99838 14842 ft 313 kts 333°
2026-04-29 19:51 22.07040 38.98885 15508 ft 314 kts 333°
2026-04-29 19:51 22.09040 38.97927 16154 ft 315 kts 333°
2026-04-29 19:52 22.11043 38.96969 16802 ft 317 kts 333°
2026-04-29 19:52 22.13161 38.96255 17441 ft 322 kts 346°
2026-04-29 19:52 22.15425 38.96119 18069 ft 330 kts
2026-04-29 19:52 22.17699 38.96610 18610 ft 338 kts 15°
2026-04-29 19:53 22.19838 38.97735 19103 ft 348 kts 30°
2026-04-29 19:53 22.21732 38.99422 19581 ft 356 kts 38°
2026-04-29 19:53 22.23578 39.01224 20068 ft 360 kts 38°
2026-04-29 19:53 22.25444 39.03039 20558 ft 363 kts 38°
2026-04-29 19:54 22.29248 39.06724 21525 ft 371 kts 38°
2026-04-29 19:54 22.31122 39.08606 22004 ft 376 kts 41°
2026-04-29 19:54 22.32970 39.10629 22488 ft 380 kts 43°
2026-04-29 19:55 22.34809 39.12757 22973 ft 384 kts 44°
2026-04-29 19:55 22.36596 39.14874 23452 ft 388 kts 45°
2026-04-29 19:55 22.38422 39.17041 23852 ft 392 kts 44°
2026-04-29 19:55 22.40279 39.19224 24232 ft 396 kts 44°
2026-04-29 19:56 22.42165 39.21415 24616 ft 400 kts 44°
2026-04-29 19:56 22.44073 39.23617 24991 ft 404 kts 43°
2026-04-29 19:56 22.46011 39.25841 25364 ft 408 kts 43°
2026-04-29 19:56 22.47970 39.28088 25740 ft 412 kts 43°
2026-04-29 19:57 22.49940 39.30349 26114 ft 416 kts 43°
2026-04-29 19:57 22.51258 39.31864 26357 ft 418 kts 43°
2026-04-29 19:57 22.53938 39.34954 26867 ft 424 kts 43°
2026-04-29 19:57 22.55961 39.37292 27224 ft 427 kts 43°
2026-04-29 19:58 22.58006 39.39653 27592 ft 431 kts 43°
2026-04-29 19:58 22.60063 39.42030 27960 ft 435 kts 43°
2026-04-29 19:58 22.62226 39.44336 28317 ft 435 kts 35°
2026-04-29 19:58 22.64638 39.46300 28639 ft 434 kts 26°
2026-04-29 19:59 22.67270 39.47884 28920 ft 431 kts 18°
2026-04-29 19:59 22.70065 39.49062 28979 ft 434 kts 10°
2026-04-29 19:59 22.76078 39.50308 28978 ft 449 kts
2026-04-29 20:00 22.82401 39.51331 28985 ft 469 kts
2026-04-29 20:00 22.88969 39.52420 28986 ft 485 kts
2026-04-29 20:01 22.95736 39.53548 28986 ft 498 kts
2026-04-29 20:01 23.02641 39.54706 28989 ft 506 kts
2026-04-29 20:02 23.09648 39.55872 28994 ft 510 kts
2026-04-29 20:02 23.14293 39.56649 28992 ft 511 kts
2026-04-29 20:03 23.23699 39.58219 28995 ft 510 kts
2026-04-29 20:03 23.30714 39.59385 29004 ft 510 kts
2026-04-29 20:04 23.37673 39.60539 29003 ft 509 kts
2026-04-29 20:04 23.44678 39.61704 28937 ft 506 kts
2026-04-29 20:05 23.48118 39.62291 28533 ft 480 kts
2026-04-29 20:05 23.51289 39.62840 27958 ft 459 kts
2026-04-29 20:05 23.54412 39.63372 27127 ft 448 kts
2026-04-29 20:05 23.57447 39.63878 26270 ft 439 kts
2026-04-29 20:06 23.60436 39.64371 25364 ft 430 kts
2026-04-29 20:06 23.63381 39.64854 24504 ft 423 kts
2026-04-29 20:06 23.66267 39.65327 23704 ft 416 kts
2026-04-29 20:06 23.69106 39.65797 22807 ft 409 kts
2026-04-29 20:07 23.71864 39.66465 22032 ft 405 kts 12°
2026-04-29 20:07 23.74499 39.67529 21238 ft 401 kts 16°
2026-04-29 20:07 23.77073 39.68639 20437 ft 394 kts 17°
2026-04-29 20:07 23.78787 39.69378 19923 ft 390 kts 17°
2026-04-29 20:08 23.81260 39.70445 19175 ft 384 kts 16°
2026-04-29 20:08 23.82927 39.71162 18674 ft 380 kts 16°
2026-04-29 20:08 23.86153 39.72548 17609 ft 372 kts 17°
2026-04-29 20:08 23.88559 39.73580 16740 ft 369 kts 17°
2026-04-29 20:09 23.90927 39.74596 15930 ft 366 kts 17°
2026-04-29 20:09 23.93294 39.75611 15118 ft 363 kts 18°
2026-04-29 20:09 23.95637 39.76617 14330 ft 360 kts 18°
2026-04-29 20:09 23.97962 39.77615 13533 ft 358 kts 19°
2026-04-29 20:10 24.00270 39.78606 12721 ft 354 kts 19°
2026-04-29 20:10 24.02547 39.79586 12186 ft 351 kts 19°
2026-04-29 20:10 24.04760 39.80543 12022 ft 331 kts 19°
2026-04-29 20:10 24.06813 39.81435 12003 ft 305 kts 19°
2026-04-29 20:11 24.08745 39.82271 12020 ft 295 kts 19°
2026-04-29 20:11 24.10617 39.83076 12007 ft 281 kts 19°
2026-04-29 20:11 24.12395 39.83840 12008 ft 270 kts 19°
2026-04-29 20:11 24.14136 39.84590 12010 ft 268 kts 19°
2026-04-29 20:12 24.15869 39.85337 12008 ft 267 kts 19°
2026-04-29 20:12 24.17599 39.86082 12010 ft 267 kts 19°
2026-04-29 20:12 24.19330 39.86829 12010 ft 268 kts 19°
2026-04-29 20:12 24.21067 39.87561 12005 ft 266 kts 15°
2026-04-29 20:13 24.22856 39.88051 12006 ft 264 kts
2026-04-29 20:13 24.24668 39.88227 11804 ft 259 kts 357°
2026-04-29 20:13 24.26457 39.88090 11472 ft 257 kts 348°
2026-04-29 20:13 24.28210 39.87725 11152 ft 256 kts 346°
2026-04-29 20:14 24.29948 39.87356 10996 ft 255 kts 346°
2026-04-29 20:14 24.31694 39.86990 11003 ft 256 kts 346°
2026-04-29 20:14 24.33447 39.86625 11005 ft 256 kts 347°
2026-04-29 20:14 24.35191 39.86263 11003 ft 256 kts 347°
2026-04-29 20:15 24.36943 39.85896 11003 ft 256 kts 347°
2026-04-29 20:15 24.38692 39.85526 10989 ft 255 kts 346°
2026-04-29 20:15 24.40432 39.85157 10695 ft 254 kts 347°
2026-04-29 20:15 24.42143 39.84797 10386 ft 253 kts 347°
2026-04-29 20:16 24.43894 39.84430 10083 ft 252 kts 347°
2026-04-29 20:16 24.45611 39.84071 9664 ft 250 kts 347°
2026-04-29 20:16 24.47299 39.83716 9177 ft 249 kts 347°
2026-04-29 20:16 24.48995 39.83354 8685 ft 247 kts 347°
2026-04-29 20:17 24.50671 39.82991 8245 ft 245 kts 347°
2026-04-29 20:17 24.52333 39.82631 8009 ft 242 kts 347°
2026-04-29 20:17 24.53994 39.82271 8006 ft 244 kts 347°
2026-04-29 20:17 24.55660 39.81910 8006 ft 245 kts 347°
2026-04-29 20:18 24.57337 39.81548 8007 ft 245 kts 347°
2026-04-29 20:18 24.59017 39.81192 8008 ft 245 kts 347°
2026-04-29 20:18 24.60676 39.80843 7805 ft 243 kts 348°
2026-04-29 20:18 24.62340 39.80494 7497 ft 242 kts 348°
2026-04-29 20:19 24.63987 39.80144 7213 ft 239 kts 348°
2026-04-29 20:19 24.65609 39.79799 6780 ft 237 kts 348°
2026-04-29 20:19 24.67220 39.79457 6333 ft 235 kts 348°
2026-04-29 20:19 24.68820 39.79118 5888 ft 232 kts 348°
2026-04-29 20:20 24.70368 39.78792 5470 ft 228 kts 347°
2026-04-29 20:20 24.71904 39.78466 5301 ft 218 kts 347°
2026-04-29 20:20 24.73353 39.78114 5302 ft 215 kts 336°
2026-04-29 20:20 24.74577 39.77231 5303 ft 208 kts 309°
2026-04-29 20:21 24.75237 39.75869 5329 ft 197 kts 284°
2026-04-29 20:21 24.75263 39.74414 5310 ft 193 kts 260°
2026-04-29 20:21 24.74960 39.72974 5300 ft 192 kts 258°
2026-04-29 20:21 24.74664 39.71565 5303 ft 193 kts 259°
2026-04-29 20:22 24.74306 39.70118 5181 ft 195 kts 249°
2026-04-29 20:22 24.73578 39.68893 5054 ft 190 kts 228°
2026-04-29 20:22 24.72536 39.68041 4933 ft 190 kts 210°
2026-04-29 20:22 24.71275 39.67619 4770 ft 191 kts 189°
2026-04-29 20:23 24.69952 39.67708 4546 ft 187 kts 170°
2026-04-29 20:23 24.68719 39.67974 4310 ft 175 kts 171°
2026-04-29 20:23 24.67551 39.68223 4105 ft 167 kts 171°
2026-04-29 20:23 24.66430 39.68462 3900 ft 162 kts 171°
2026-04-29 20:24 24.65326 39.68696 3687 ft 162 kts 171°
2026-04-29 20:24 24.64219 39.68933 3489 ft 160 kts 170°
2026-04-29 20:24 24.63129 39.69177 3263 ft 160 kts 170°
2026-04-29 20:24 24.62056 39.69412 3092 ft 157 kts 172°
2026-04-29 20:25 24.60996 39.69629 2832 ft 152 kts 169°
2026-04-29 20:25 24.59974 39.69848 2618 ft 148 kts 170°
2026-04-29 20:25 24.58973 39.70059 2419 ft 148 kts 170°
2026-04-29 20:25 24.57958 39.70272 2247 ft 148 kts 170°
2026-04-29 20:26 24.56995 39.70478 2143 ft 129 kts 171°
2026-04-29 20:26 24.56226 39.70633 2120 ft 90 kts 169°
2026-04-29 20:26 24.55784 39.70727 2108 ft 41 kts 169°
2026-04-29 20:26 24.55533 39.70780 2102 ft 34 kts 165°
2026-04-29 20:27 24.55342 39.70857 2099 ft 28 kts 147°
2026-04-29 20:27 24.55247 39.70937 2099 ft 19 kts 140°
2026-04-29 20:27 24.55213 39.71008 2099 ft 0 kts 85°
2026-04-29 20:29 24.55216 39.71030 2099 ft 10 kts 81°
2026-04-29 20:29 24.55228 39.71090 2099 ft 6 kts 79°
2026-04-29 20:29 24.55236 39.71134 2100 ft 5 kts 78°
2026-04-29 20:29 24.55243 39.71168 2100 ft 4 kts 76°
2026-04-29 20:30 24.55246 39.71194 2100 ft 3 kts 89°
2026-04-29 20:30 24.55237 39.71221 2100 ft 8 kts 127°
2026-04-29 20:30 24.55177 39.71245 2099 ft 9 kts 166°
2026-04-29 20:30 24.55117 39.71257 2098 ft 4 kts 171°
2026-04-29 20:31 24.55088 39.71264 2097 ft 5 kts 159°
2026-04-29 20:31 24.55083 39.71297 2097 ft 4 kts 85°
2026-04-29 20:31 24.55086 39.71324 2097 ft 3 kts 77°
2026-04-29 20:31 24.55090 39.71343 2097 ft 2 kts 79°
2026-04-29 20:32 24.55092 39.71354 2097 ft 1 kts 80°
2026-04-29 20:32 24.55094 39.71365 2097 ft 2 kts 78°
2026-04-29 20:32 24.55097 39.71380 2097 ft 1 kts 79°
2026-04-29 20:32 24.55097 39.71381 2097 ft 0 kts 79°